Address 0x395e43b6e00c2aaac7c9f2a89865f3012e2f2cff

Overview

Balance:
0.00032149832 MATIC
My Name Tag:
Not Available

Txn Hash Method
Block
From
To
Value [Txn Fee]
0xeb40d1f6c862ab54ecb079071f08ce553c65f35f42c8b9b9b79ecc3fb5a16ea6Transfer263427592022-05-17 2:19:35199 days 16 hrs ago0x395e43b6e00c2aaac7c9f2a89865f3012e2f2cffOUT0x87f70751d283d4d4b7cc16586e2e3afcf528ca7b4.449322 MATIC0.000178500848.50004
0x092f07d4189e75658fa1795448cdfd19c786480a916d39a9e7b494cb152cd945Transfer262810472022-05-11 2:57:34205 days 15 hrs ago0x395e43b6e00c2aaac7c9f2a89865f3012e2f2cffOUT0x87f70751d283d4d4b7cc16586e2e3afcf528ca7b9.999821 MATIC0.000178500638.50003
0x5524d2e4b94f8f9230d9af74bc21567d6f5bb991680b673cd736c66e85e1b911Transfer262337512022-05-06 23:06:13209 days 19 hrs ago0x395e43b6e00c2aaac7c9f2a89865f3012e2f2cffOUT0x87f70751d283d4d4b7cc16586e2e3afcf528ca7b10.05 MATIC0.000178500218.50001
[ Download CSV Export 
Latest 25 internal transaction
Parent Txn Hash Block From To Value
0xc495a318c5f8ad1982e34619afc8aecbb7b5b9614a2b8d387b28c7a6b1467cfa263036652022-05-13 6:42:28203 days 12 hrs ago 0x7f092e65c688a509737fcd8d0998dd12208f52970x395e43b6e00c2aaac7c9f2a89865f3012e2f2cff0.2 MATIC
0x8038937cecaa9757ea6543f91bb2a10cdd7e01185bd8bfc1da44905fd7c3f4fa263022842022-05-13 3:54:47203 days 14 hrs ago 0x7f092e65c688a509737fcd8d0998dd12208f52970x395e43b6e00c2aaac7c9f2a89865f3012e2f2cff0.2 MATIC
0x971178f2dc70de61f77955ad8c93ff185c7a1c1d80ff182aedc83f5ebf33f942263012532022-05-13 1:50:35203 days 17 hrs ago 0x7f092e65c688a509737fcd8d0998dd12208f52970x395e43b6e00c2aaac7c9f2a89865f3012e2f2cff0.2 MATIC
0xaae21d892f3897fe2baa78d06f9d427f2e09ebf71954d3e8c3e015482cd159ab262921462022-05-12 4:34:32204 days 14 hrs ago 0x7f092e65c688a509737fcd8d0998dd12208f52970x395e43b6e00c2aaac7c9f2a89865f3012e2f2cff0.2 MATIC
0x8cff411e5a64f5c4e29d4fdc8af25ad0a0a00780f9ce4a78dc9387ff210b2fd3262912422022-05-12 2:20:43204 days 16 hrs ago 0x7f092e65c688a509737fcd8d0998dd12208f52970x395e43b6e00c2aaac7c9f2a89865f3012e2f2cff0.2 MATIC
0x61c8b6fc675802ec1236dd1d9a157ce2688511c7d20303601ca8b4eef2413b3c262900142022-05-11 23:38:24204 days 19 hrs ago 0x7f092e65c688a509737fcd8d0998dd12208f52970x395e43b6e00c2aaac7c9f2a89865f3012e2f2cff0.2 MATIC
0x897161571e2b1a8d5e437ed2988c51e949a3aed686f9683ac470aaa048d90099262896502022-05-11 22:53:38204 days 20 hrs ago 0x7f092e65c688a509737fcd8d0998dd12208f52970x395e43b6e00c2aaac7c9f2a89865f3012e2f2cff0.2 MATIC
0x59206eade34b091f8edada740d5c60f583d017b87a2c4fe7d2f36e0ba5e00266262892962022-05-11 22:05:13204 days 20 hrs ago 0x7f092e65c688a509737fcd8d0998dd12208f52970x395e43b6e00c2aaac7c9f2a89865f3012e2f2cff0.2 MATIC
0x0c1ccfb81a3a3cd93707a90feb63976d0919af62dac5cfa26245d448553473fe262889042022-05-11 21:15:47204 days 21 hrs ago 0x7f092e65c688a509737fcd8d0998dd12208f52970x395e43b6e00c2aaac7c9f2a89865f3012e2f2cff0.2 MATIC
0xe0309eb9c62593011cb02c579d4e330cd6b34f467fceab1190bd1626483b2bcd262883892022-05-11 20:11:09204 days 22 hrs ago 0x7f092e65c688a509737fcd8d0998dd12208f52970x395e43b6e00c2aaac7c9f2a89865f3012e2f2cff0.2 MATIC
0x369a32ad13e15a91940a93f419fe16562f2653513d5e14f5409fcff8ce79244d262879032022-05-11 19:06:01204 days 23 hrs ago 0x7f092e65c688a509737fcd8d0998dd12208f52970x395e43b6e00c2aaac7c9f2a89865f3012e2f2cff0.2 MATIC
0xe06fa93414d3841c49b529fa44327f141d24f27e41f51ed4eaf296f40b9b8bfb262873032022-05-11 17:47:12205 days 1 hr ago 0x7f092e65c688a509737fcd8d0998dd12208f52970x395e43b6e00c2aaac7c9f2a89865f3012e2f2cff0.2 MATIC
0xa4cda6658dd768b94759514a64ad143cdf6a7e44a888b839bbffb31c4ff5fff5262866762022-05-11 16:29:12205 days 2 hrs ago 0x7f092e65c688a509737fcd8d0998dd12208f52970x395e43b6e00c2aaac7c9f2a89865f3012e2f2cff0.2 MATIC
0x2eaf56c92c0b1d08b3f22ac2d18029d452cb391cd83c07adfabb77f423dcd4a5262859982022-05-11 15:02:41205 days 3 hrs ago 0x7f092e65c688a509737fcd8d0998dd12208f52970x395e43b6e00c2aaac7c9f2a89865f3012e2f2cff0.2 MATIC
0x90c9f1f2ed126e4bae697a1fdaceff5b011eeedc0dd383377b7ba01dd4423138262852272022-05-11 13:20:39205 days 5 hrs ago 0x7f092e65c688a509737fcd8d0998dd12208f52970x395e43b6e00c2aaac7c9f2a89865f3012e2f2cff0.2 MATIC
0xcaed90f14e3314d25eeb41587e371cba7617e619cc2ad6b97c1414601cc1be17262845892022-05-11 11:55:29205 days 6 hrs ago 0x7f092e65c688a509737fcd8d0998dd12208f52970x395e43b6e00c2aaac7c9f2a89865f3012e2f2cff0.2 MATIC
0xfa65064892d552aeab644f9bca4f07601201777735cc7e0fdc52a9c16a55f92e262837652022-05-11 9:47:46205 days 9 hrs ago 0x7f092e65c688a509737fcd8d0998dd12208f52970x395e43b6e00c2aaac7c9f2a89865f3012e2f2cff0.2 MATIC
0xc3d9c722ac18daea047f85a842ee50dcf9df7b6a7d63f70f472a0423d3ecca6a262833912022-05-11 8:46:10205 days 10 hrs ago 0x7f092e65c688a509737fcd8d0998dd12208f52970x395e43b6e00c2aaac7c9f2a89865f3012e2f2cff0.2 MATIC
0x32da0d7095b124727e3d7a7f3ef09e63be0d74101df567d42e604263d2fb40a6262830522022-05-11 7:58:40205 days 10 hrs ago 0x7f092e65c688a509737fcd8d0998dd12208f52970x395e43b6e00c2aaac7c9f2a89865f3012e2f2cff0.2 MATIC
0xde94e49c3a8b4c767286a964175ae129eca71c8d1202e1634b09d40ffa833d84262823302022-05-11 6:07:19205 days 12 hrs ago 0x7f092e65c688a509737fcd8d0998dd12208f52970x395e43b6e00c2aaac7c9f2a89865f3012e2f2cff0.2 MATIC
0x55bd2c40e563787d6dbe3e5a6c8f50ff0dfb075f473219c2410ecf8e093e185c262819342022-05-11 5:04:18205 days 13 hrs ago 0x7f092e65c688a509737fcd8d0998dd12208f52970x395e43b6e00c2aaac7c9f2a89865f3012e2f2cff0.2 MATIC
0x3dc3ceeb04abceb860ba67de56c4a6e4706525692fc0d168e2ecce5b4763a132262815382022-05-11 4:08:37205 days 14 hrs ago 0x7f092e65c688a509737fcd8d0998dd12208f52970x395e43b6e00c2aaac7c9f2a89865f3012e2f2cff0.2 MATIC
0xa957841acf5e7e491feb3dec5a5bcea225e2069dd4ff61a824c58fca88df1762262806152022-05-11 1:48:47205 days 17 hrs ago 0x7f092e65c688a509737fcd8d0998dd12208f52970x395e43b6e00c2aaac7c9f2a89865f3012e2f2cff0.2 MATIC
0xd20e952449f766ddd2845db15c23f24ddfee92448374c72f795f383ae00dc0df262802682022-05-11 0:58:12205 days 17 hrs ago 0x7f092e65c688a509737fcd8d0998dd12208f52970x395e43b6e00c2aaac7c9f2a89865f3012e2f2cff0.2 MATIC
0x579bbefdc4c16d936c3da68dce9d6b5656100072e336db30852aa98e80f70801262799332022-05-11 0:07:26205 days 18 hrs ago 0x7f092e65c688a509737fcd8d0998dd12208f52970x395e43b6e00c2aaac7c9f2a89865f3012e2f2cff0.2 MATIC
[ Download CSV Export 
Loading

Contract Name:
0 MATIC

Compiler Version
0

Optimization Enabled:
0 MATIC

Other Settings:
-NA-
Block Transaction Gas Used Reward
Age Block Fee Address BC Fee Address Voting Power Jailed Incoming
Block Uncle Number Difficulty Gas Used Reward
Loading